Theta_e
313 316 317 317 316 302 312 311 306 308 314 309 307 307 309 307 302 299 308 306 310 315 317 326 330 331 330 334 335 333 335 337 338 335 334 334 335 336 339 340 341 343 343 346 347 349 349 350 350 350 351 352 354 354 354 355 356 356 356 358 357 358 358
311 314 320 319 320 317 312 305 309 316 317 314 307 299 305 300 296 301 305 301 303 305 302 318 328 329 329 332 334 332 336 338 336 336 337 337 336 337 339 341 345 345 345 345 346 347 348 349 349 350 352 353 355 355 354 354 355 355 354 355 354 355 357
311 314 317 316 318 320 312 309 318 307 302 301 307 304 296 296 296 299 302 304 304 305 307 313 317 320 327 332 334 333 333 334 335 337 340 341 342 341 339 340 343 345 346 346 347 347 346 348 351 351 352 352 353 354 353 352 352 353 353 352 353 354 355
311 313 312 304 308 316 318 318 313 315 309 304 302 303 304 302 296 297 299 303 301 311 310 311 317 326 328 330 331 333 334 335 336 339 340 342 342 341 340 339 340 342 346 348 348 347 346 347 350 351 351 351 350 352 352 351 351 352 353 351 352 352 353
309 304 309 306 308 306 308 308 307 309 308 311 308 307 303 301 298 298 298 297 303 313 327 322 329 332 331 332 331 335 336 337 337 340 341 344 345 344 343 342 341 339 341 344 346 348 348 348 350 351 351 352 351 352 351 351 351 350 349 350 350 352 351
304 306 311 311 311 310 308 307 306 307 305 303 299 299 308 305 301 296 298 297 306 322 334 331 332 332 333 334 336 334 338 338 340 340 341 342 342 346 347 347 345 343 342 343 343 346 349 348 348 350 351 353 351 351 352 353 353 352 350 349 351 352 353
306 309 312 315 314 313 311 310 307 310 309 307 303 295 301 305 305 306 304 300 304 323 332 332 332 334 336 337 336 336 337 339 339 339 339 341 342 344 345 347 348 347 346 345 344 346 347 348 349 350 351 352 352 354 354 355 355 354 352 351 353 354 353
310 311 313 315 314 314 310 310 311 309 306 307 305 305 307 303 304 302 302 299 304 328 332 335 333 335 336 337 339 338 336 338 339 338 341 342 342 344 346 347 349 350 349 350 351 346 347 349 349 349 350 351 353 353 355 357 356 353 353 356 355 357 356
303 306 309 309 313 312 308 308 310 311 310 310 310 309 310 303 303 304 301 296 301 317 335 333 334 334 334 336 338 339 336 337 337 338 341 342 343 343 344 346 348 350 349 348 348 349 350 350 351 351 350 351 353 354 356 356 356 356 353 356 359 359 359
294 294 296 298 302 306 308 310 311 312 309 309 308 302 305 299 306 307 301 301 309 323 331 332 330 333 334 338 339 339 338 338 337 337 338 341 342 342 343 345 347 347 348 350 349 348 350 351 351 352 353 353 354 354 356 357 358 359 356 355 356 360 362
300 302 306 306 307 307 303 306 308 309 310 311 310 308 304 301 305 305 307 307 307 310 316 326 327 330 330 334 338 337 337 337 337 337 338 339 341 342 342 343 346 347 349 349 348 349 348 351 353 352 352 354 356 356 356 358 358 359 359 356 358 361 362
307 307 306 308 307 304 305 305 306 309 309 310 308 305 303 313 305 300 308 311 308 309 312 314 320 328 329 331 335 338 337 335 335 337 339 339 341 342 342 342 343 343 346 348 347 348 347 347 349 352 355 354 354 356 357 358 359 360 359 358 360 362 362
306 306 307 307 307 306 306 307 306 308 309 310 307 307 309 309 304 301 310 313 310 311 313 315 322 326 327 331 335 338 338 337 337 337 337 338 338 340 340 341 342 343 345 347 348 348 347 349 349 350 352 354 354 354 355 357 358 359 360 360 360 361 361
306 306 307 308 307 306 306 306 307 309 309 309 309 308 309 309 309 310 310 312 312 313 315 321 328 331 330 334 338 338 337 335 336 336 336 337 338 338 339 341 342 343 344 344 346 347 348 348 346 346 348 350 353 353 353 355 357 358 359 360 360 359 359
305 307 309 308 308 307 306 307 307 308 308 308 309 308 309 310 309 310 311 312 312 317 329 329 333 334 336 336 335 336 337 335 335 335 336 337 338 339 340 342 342 342 343 343 344 345 345 347 347 347 349 350 351 352 353 354 355 356 359 359 359 358 357
303 306 306 307 307 308 307 306 307 307 307 306 308 307 310 310 308 310 311 309 309 326 328 331 334 334 334 333 335 335 335 335 336 336 337 338 339 338 339 340 341 341 342 342 342 344 345 346 348 349 348 349 350 350 351 351 353 355 355 357 357 356 357
302 307 307 305 306 305 302 304 307 309 309 310 310 311 313 313 312 309 307 308 315 323 329 326 331 331 332 333 334 335 334 336 336 336 337 338 339 338 338 339 339 339 340 341 343 343 344 345 346 348 349 348 348 351 351 353 354 353 353 354 355 355 357
302 305 306 307 302 296 298 313 311 310 308 308 308 309 311 314 315 312 313 317 325 327 325 321 326 329 332 335 337 338 336 335 336 337 338 337 338 339 339 340 340 341 342 342 343 344 344 344 346 348 349 348 348 351 351 350 350 351 352 352 352 352 352
301 305 306 300 295 297 316 315 318 316 313 313 310 310 312 314 316 316 314 317 320 324 326 328 331 334 335 336 337 337 336 336 336 336 337 337 338 339 340 340 340 341 341 342 343 344 346 346 348 348 348 348 347 349 346 344 344 345 347 346 347 349 349
306 303 301 293 296 307 313 314 318 321 315 315 314 311 312 314 314 317 316 317 322 329 329 331 335 336 335 336 338 337 338 337 337 335 335 338 338 339 340 340 341 341 342 343 343 344 346 347 348 347 347 348 347 344 345 344 344 344 344 344 344 345 346
299 301 300 299 308 306 307 308 312 312 309 311 309 303 308 316 316 316 316 318 328 329 330 333 334 335 333 332 333 338 337 338 338 337 337 337 337 338 339 339 340 342 343 343 345 345 346 346 347 348 349 348 347 348 348 347 345 344 342 343 344 344 344
305 299 297 298 298 296 302 309 314 315 314 315 316 312 307 314 317 318 318 319 329 330 331 332 334 334 329 323 326 336 337 338 338 339 339 338 339 338 339 341 341 343 343 344 346 345 346 346 346 347 348 348 347 349 349 347 347 346 345 341 342 344 345
302 301 297 296 295 300 308 312 313 319 320 317 318 310 303 315 317 319 320 322 329 329 330 332 333 328 318 317 326 336 338 339 340 338 337 338 339 340 340 340 341 342 343 345 345 346 347 343 345 346 347 348 347 346 346 344 343 345 344 342 342 342 345
303 301 298 296 301 301 310 314 315 317 321 318 313 299 301 315 318 320 322 324 328 329 332 333 331 324 314 317 330 336 337 338 340 338 337 338 339 340 342 342 343 344 345 346 345 344 343 342 344 345 346 346 346 345 345 346 344 342 342 344 344 345 345
301 301 300 301 303 310 314 313 317 319 320 316 303 296 307 317 320 323 323 326 330 333 333 333 327 331 332 336 339 341 340 340 341 340 341 341 341 342 342 342 343 343 343 342 341 341 342 344 345 345 344 344 343 344 345 345 343 342 343 344 343 342 342
300 301 298 299 303 312 315 317 318 321 316 302 301 320 325 320 322 326 326 328 332 334 335 332 330 334 337 339 339 341 340 339 340 340 341 341 340 342 343 343 343 342 341 341 341 340 341 342 343 344 345 343 342 342 343 341 340 341 341 340 340 339 337
303 303 300 297 292 314 316 319 319 320 308 308 319 321 325 323 325 325 329 332 335 335 333 335 338 336 335 335 337 339 338 339 338 340 340 339 338 339 340 340 340 340 339 338 335 337 340 343 345 346 345 343 342 342 340 341 341 341 340 338 337 336 334
299 300 297 297 306 319 321 316 309 318 316 325 327 325 322 325 325 326 330 333 336 334 334 334 336 334 334 336 337 336 337 338 338 342 341 339 339 338 339 339 338 338 338 337 337 336 338 341 345 345 343 341 341 339 338 341 341 341 339 337 337 335 334
305 303 305 316 320 320 321 319 328 325 326 328 328 330 326 323 327 333 330 334 335 336 336 336 335 334 334 335 335 334 335 336 338 339 339 338 337 337 338 338 338 339 338 337 338 338 338 339 341 342 343 340 339 337 338 340 339 338 337 336 335 334 333
318 318 319 319 323 320 320 324 328 328 326 327 327 328 325 330 332 333 331 336 336 337 338 335 334 335 334 335 335 335 335 335 337 340 338 336 336 336 336 337 339 339 338 338 340 340 340 341 341 342 342 342 340 339 340 339 339 338 337 335 334 333 334
306 302 318 314 317 322 322 323 327 331 330 329 329 329 331 331 334 332 336 337 338 338 338 337 336 336 337 336 335 337 337 338 339 336 335 335 336 335 334 335 339 339 338 337 337 338 339 339 339 339 340 339 340 341 341 340 340 339 337 335 334 334 333
307 309 320 319 323 328 327 324 326 325 330 334 335 337 337 338 338 337 338 338 337 338 335 336 335 334 335 334 335 335 338 339 338 336 336 337 335 335 336 338 339 339 337 336 336 337 337 337 337 337 337 337 339 339 339 340 339 338 337 336 335 334 331
312 317 320 321 324 325 325 326 328 328 330 333 333 336 338 338 337 337 338 337 337 336 335 336 335 333 334 335 336 336 337 337 335 336 336 337 336 337 336 337 339 339 338 337 337 336 336 338 337 337 336 336 337 339 340 341 340 338 336 336 335 331 329
308 308 313 319 310 311 319 323 327 331 332 333 334 335 335 336 337 337 335 336 336 335 336 336 334 332 333 335 336 335 336 336 337 337 336 336 335 336 337 337 338 338 338 338 336 337 338 339 338 338 337 338 338 337 339 340 339 337 335 333 331 330 330
306 319 321 324 326 325 319 322 325 332 332 333 332 334 334 337 337 337 336 336 336 336 336 336 334 334 335 336 336 336 335 337 338 337 337 335 333 335 337 336 336 336 336 337 337 337 338 339 339 338 338 338 340 340 340 340 339 337 336 333 332 330 331
317 320 320 327 325 322 323 323 328 330 333 330 330 333 335 336 337 337 337 337 336 337 337 336 336 335 335 336 336 335 336 337 336 336 337 335 334 334 336 336 335 335 335 336 337 337 338 338 337 337 336 338 339 340 341 339 338 337 336 334 333 332 332
317 324 324 324 327 328 329 329 329 330 331 331 329 332 334 336 337 338 337 337 338 338 336 335 336 337 336 336 337 335 335 336 336 337 336 335 333 332 332 333 334 334 335 335 337 337 337 335 333 332 334 338 339 338 340 340 339 338 337 336 335 334 335
Wind_Speed
5 8 6 6 4 7 7 6 6 3 4 5 4 3 3 7 6 7 1 5 5 3 7 4 3 4 5 5 5 4 5 6 6 6 7 9 9 12 10 11 11 12 13 13 12 13 13 13 13 14 14 14 14 13 13 15 15 14 15 15 14 12 12
6 1 3 3 4 5 3 6 3 4 1 6 4 5 2 5 6 0 2 5 7 5 3 2 5 3 5 5 4 4 5 4 6 5 6 7 10 10 11 12 10 11 11 13 13 12 13 14 15 15 16 15 14 14 14 15 15 15 15 15 15 13 13
5 6 6 6 4 5 6 6 5 7 3 7 4 5 6 6 5 5 2 1 8 4 5 5 3 1 4 5 4 3 5 5 4 5 6 6 6 7 5 5 5 7 10 11 12 12 13 14 14 15 14 12 12 14 14 15 16 15 15 13 14 12 13
6 7 8 7 6 7 5 4 6 3 7 4 4 3 7 3 8 4 2 3 5 4 2 5 1 4 3 4 4 4 1 3 3 2 3 5 6 6 7 7 5 6 8 10 11 12 11 11 12 12 14 14 15 14 14 14 14 14 14 14 13 13 13
6 8 8 7 6 7 8 8 6 5 6 3 8 2 7 6 7 6 7 8 2 4 4 2 4 3 3 1 2 3 2 2 1 2 1 1 1 3 5 6 7 7 6 7 9 10 10 11 10 11 12 14 12 11 13 14 14 15 15 14 13 12 12
8 3 3 3 4 4 5 6 7 7 6 6 6 7 6 7 5 5 6 7 3 6 2 3 3 3 2 3 1 2 3 2 1 1 1 1 2 2 3 5 7 8 9 8 7 9 9 9 10 12 11 11 14 14 13 13 12 13 14 14 12 12 11
2 7 4 2 3 3 6 5 8 3 6 7 7 7 5 3 6 7 8 8 5 4 5 3 3 2 1 1 1 1 2 1 1 2 3 2 2 4 3 5 5 6 7 7 7 8 9 10 10 11 11 11 13 13 12 11 11 12 12 12 12 11 11
3 5 4 3 1 3 7 7 6 6 9 6 8 8 6 9 5 5 6 8 4 5 4 2 3 2 2 3 2 1 1 2 1 1 1 3 3 3 4 4 5 6 6 5 3 6 7 8 9 10 10 10 10 12 12 12 14 15 13 10 10 11 11
4 4 4 5 4 5 7 6 3 7 7 7 7 8 3 8 10 8 8 10 2 2 5 4 4 4 5 5 4 2 2 2 1 1 1 3 3 3 4 4 5 6 6 6 5 5 6 7 8 9 10 10 10 10 11 12 11 12 11 9 8 10 11
8 7 6 6 7 8 6 4 2 6 9 6 6 9 7 7 8 6 9 9 1 9 7 4 4 4 5 4 4 4 2 1 1 1 2 2 2 2 3 4 4 6 6 5 5 5 5 7 7 8 8 9 10 11 11 11 10 10 11 11 11 11 10
6 3 3 4 5 1 7 5 8 6 7 6 8 7 7 10 7 6 9 10 10 12 0 3 2 4 5 5 5 5 4 3 2 1 3 2 2 2 3 3 3 3 5 8 7 4 1 1 3 4 6 7 8 10 11 11 10 11 11 11 11 11 11
6 2 1 2 1 5 3 4 5 5 5 6 9 8 8 6 7 10 5 3 6 5 9 5 2 3 4 4 4 4 3 2 2 2 2 2 3 1 2 2 3 3 4 5 7 7 5 3 1 1 2 4 6 8 9 10 10 10 9 11 11 11 11
3 1 1 2 3 3 3 4 4 4 5 6 9 9 9 6 8 10 4 3 7 8 7 5 3 3 4 3 3 2 1 2 2 3 3 3 3 2 2 2 2 3 3 3 5 7 7 6 6 5 4 4 5 6 7 9 10 10 10 10 11 11 10
5 4 4 4 5 4 5 5 5 5 6 7 7 9 8 8 10 9 11 9 10 9 9 3 2 1 3 0 2 2 3 3 3 3 3 3 3 3 1 1 2 1 0 1 1 3 5 6 6 4 3 3 4 6 8 9 9 10 10 11 11 11 10
4 5 4 5 6 5 7 6 5 5 6 7 7 8 8 7 9 11 10 10 11 5 1 2 1 1 2 3 4 4 3 2 2 4 4 3 2 1 1 2 3 3 4 2 2 1 2 3 4 6 5 4 5 5 6 8 9 9 10 11 10 10 10
7 6 7 6 5 7 7 7 7 8 8 8 6 7 5 7 8 7 5 8 8 4 3 4 3 3 4 4 5 4 3 2 3 4 3 3 3 2 1 2 3 4 3 2 2 3 3 3 3 3 4 5 6 7 7 8 8 8 10 11 10 10 10
7 8 7 7 7 6 8 9 10 10 9 8 6 5 5 6 7 7 6 5 2 3 3 3 3 4 3 4 3 3 3 1 3 3 2 2 3 2 3 3 2 1 1 2 2 0 2 3 3 3 3 4 4 5 6 7 6 7 7 9 9 10 10
4 8 8 6 6 9 5 4 2 4 6 6 9 7 6 6 7 6 5 5 4 3 2 3 2 3 3 2 2 1 1 2 3 3 1 0 2 3 3 4 3 2 2 2 2 1 2 2 3 2 2 3 3 2 3 2 3 6 7 7 5 8 9
7 6 5 7 11 7 4 3 2 1 3 5 8 8 6 6 7 9 9 7 5 1 1 1 1 1 2 2 2 4 3 2 2 0 0 2 2 2 3 3 4 3 2 3 3 4 3 2 2 3 3 4 4 3 5 6 4 2 2 5 3 3 4
2 5 7 10 8 3 4 2 2 2 2 4 7 10 10 8 9 8 9 8 3 3 3 2 2 2 1 2 3 3 4 3 3 2 4 4 3 3 3 3 3 3 2 2 3 4 3 3 3 3 3 4 6 6 5 6 6 4 3 4 5 5 5
10 8 9 10 2 5 7 5 5 6 6 5 7 10 4 3 5 6 7 5 4 4 4 3 3 2 2 4 5 6 5 6 4 2 3 2 3 4 3 2 3 2 2 3 4 4 5 4 3 3 3 3 5 7 7 6 7 7 6 6 5 5 4
8 9 8 8 8 9 6 6 2 4 4 5 3 7 10 5 5 4 6 5 6 6 6 5 5 3 4 5 5 9 8 7 5 4 3 3 3 2 3 2 3 4 3 3 5 5 6 5 3 3 2 4 4 5 4 4 4 5 5 3 3 3 4
7 9 9 8 9 7 2 1 3 4 2 3 2 5 9 3 1 3 4 5 6 7 7 7 7 5 4 2 5 8 9 8 6 5 4 4 3 4 3 3 4 3 3 2 2 3 2 5 6 4 3 4 4 5 5 6 4 3 5 6 6 3 3
8 9 10 10 6 7 3 4 4 5 4 4 4 8 3 6 3 4 4 6 7 7 7 8 7 6 4 3 6 7 9 8 7 6 5 4 4 4 4 5 5 5 3 3 2 4 4 5 5 4 3 3 5 6 6 7 6 5 5 6 8 6 6
9 11 10 8 7 3 6 5 7 6 5 4 6 7 4 5 5 5 4 6 7 8 9 8 5 4 3 4 4 4 6 7 6 4 5 4 4 5 6 6 4 6 5 4 4 4 3 4 4 4 4 4 4 5 5 6 8 8 7 7 8 8 8
10 8 10 9 7 3 7 6 6 9 6 6 7 2 3 4 5 5 5 6 8 9 9 7 4 4 5 4 4 5 6 6 6 6 6 6 7 7 7 6 5 6 7 7 8 8 6 2 3 4 5 6 6 7 8 10 10 9 9 9 8 9 8
9 6 9 7 7 5 8 12 7 6 8 2 4 5 3 3 2 5 5 5 7 8 7 6 3 5 4 4 5 6 6 7 7 7 6 6 6 6 5 5 5 6 6 6 6 6 2 1 4 4 7 9 9 8 10 10 10 10 10 10 10 11 9
9 9 10 6 3 4 12 12 6 10 5 3 2 2 5 2 2 3 3 4 6 7 6 7 6 5 6 5 6 7 7 7 8 7 7 6 5 5 6 6 6 5 4 4 4 6 6 1 1 4 8 9 10 11 11 9 10 10 10 10 10 10 10
10 6 4 4 6 7 10 7 5 5 8 3 3 1 2 3 3 2 3 5 7 7 6 6 7 7 6 6 7 7 8 8 9 8 7 6 6 6 7 7 5 4 5 6 8 7 6 6 7 7 8 10 11 11 9 9 10 10 10 9 9 10 10
4 1 3 2 0 2 7 6 4 4 6 3 2 1 2 2 2 3 2 6 7 8 7 7 7 6 7 7 7 7 8 8 8 8 8 7 7 8 7 6 5 7 8 6 7 10 9 9 9 8 8 9 11 10 9 8 8 8 8 7 7 9 10
5 5 6 4 3 3 5 6 5 3 2 4 3 2 1 3 3 3 3 6 7 8 7 7 7 7 7 7 7 7 7 7 8 8 8 7 6 5 5 6 7 9 10 9 9 10 11 10 9 9 9 8 9 8 9 9 11 10 10 11 10 10 10
8 1 4 2 2 0 1 5 6 4 5 4 2 2 4 4 4 3 5 6 8 8 8 7 7 8 8 9 9 9 9 8 8 7 8 8 8 6 7 9 10 10 9 11 11 11 10 9 10 10 10 10 10 9 10 10 11 10 10 11 11 11 11
3 3 2 2 3 4 5 5 5 5 7 7 6 6 6 6 6 6 6 6 7 8 7 8 7 8 8 9 9 10 9 9 8 8 8 8 9 9 10 9 9 9 10 11 12 12 11 10 11 10 10 10 11 11 11 11 10 11 11 12 11 11 10
6 6 5 7 5 6 7 9 9 7 8 8 8 7 7 6 7 7 8 7 7 6 7 7 7 8 8 9 9 10 9 9 9 9 9 9 9 9 10 9 10 11 11 12 12 11 9 9 9 10 10 10 10 10 10 10 11 11 10 10 10 10 9
4 4 4 7 2 6 5 7 10 10 9 9 9 8 7 7 7 7 8 8 7 6 7 6 7 7 8 9 9 10 9 9 9 9 10 9 9 9 9 10 11 11 11 11 11 11 9 8 7 7 7 8 9 8 8 8 8 8 7 7 8 8 8
2 5 8 1 2 2 2 7 11 10 8 8 8 7 7 7 8 7 7 7 8 7 6 6 7 8 9 9 10 9 9 10 10 10 9 9 9 9 9 10 10 11 12 11 11 11 9 9 8 8 7 6 7 8 7 7 7 6 7 7 7 7 7
6 8 8 7 2 1 1 7 9 10 8 7 8 8 7 8 7 7 7 7 7 8 8 7 7 7 8 10 10 9 9 9 10 10 9 8 9 8 10 11 10 10 10 9 9 9 9 9 10 9 8 7 6 7 6 5 6 6 5 6 7 8 8
Wind_Direction
211 210 192 211 239 240 155 210 230 319 14 266 276 241 273 280 254 258 24 246 230 209 195 188 173 208 203 170 157 169 171 179 182 192 197 189 201 225 237 227 207 207 200 199 200 194 194 193 191 193 192 187 189 185 186 189 192 190 189 190 193 196 197
186 334 246 213 186 277 170 236 180 78 341 321 284 283 181 240 270 177 254 300 298 291 135 239 155 182 150 150 167 154 147 180 199 187 191 182 188 219 228 232 220 212 201 196 206 201 200 196 194 193 192 192 188 190 188 187 191 194 192 191 194 195 196
123 176 207 199 208 285 279 328 95 225 186 214 182 268 257 283 254 307 203 95 269 279 288 152 140 177 137 143 141 171 169 176 182 176 177 170 180 182 209 224 220 214 209 202 203 207 206 200 200 196 187 191 196 197 197 193 193 194 195 193 195 195 196
138 182 196 216 187 189 246 262 230 247 272 300 213 214 285 266 291 281 210 162 283 178 357 351 27 86 99 129 155 169 167 135 177 149 161 170 186 188 189 196 211 224 220 211 208 207 211 204 200 203 185 194 201 201 200 204 197 194 197 198 195 200 198
175 200 192 233 210 208 199 219 227 192 250 359 297 245 251 275 295 279 303 295 329 60 46 20 94 96 108 117 150 149 181 110 125 102 39 80 175 203 195 189 194 212 226 221 215 204 203 206 197 197 197 195 199 202 205 208 204 200 197 201 198 201 203
209 133 115 356 306 282 249 239 233 225 229 227 248 256 165 265 257 287 284 274 291 96 18 84 93 100 129 136 193 162 135 166 11 40 162 263 263 220 242 226 194 200 213 226 225 211 199 202 201 202 201 189 190 196 202 206 211 212 204 199 200 196 206
235 92 108 33 337 280 288 275 281 305 265 261 249 276 275 225 261 305 285 291 305 52 86 78 92 109 111 40 232 199 113 60 26 2 332 5 307 284 259 219 215 194 195 204 218 212 200 201 201 201 200 195 194 193 197 196 200 214 220 206 199 197 202
127 135 114 140 183 250 225 225 265 255 257 287 283 290 328 300 274 242 259 255 261 122 103 107 124 155 219 232 255 267 152 118 194 249 304 302 300 284 259 244 212 204 180 175 200 205 194 196 193 197 202 199 200 197 195 192 197 201 212 216 202 197 202
188 173 183 196 190 233 253 261 199 258 277 264 276 284 287 272 277 281 271 277 352 199 144 152 153 186 213 213 198 210 221 155 206 187 287 304 299 288 269 240 226 210 204 181 190 202 205 204 198 197 198 199 203 205 194 201 201 196 197 211 207 198 204
214 212 215 212 201 221 233 256 230 224 248 244 246 246 234 256 279 285 264 268 333 139 147 149 176 197 220 213 202 185 198 248 260 230 277 293 288 302 291 256 229 226 210 193 177 191 212 209 203 199 201 202 203 208 203 202 198 194 193 202 200 195 197
261 292 55 58 310 262 254 185 237 224 243 255 256 269 269 254 258 263 258 261 290 303 141 183 191 223 241 226 205 206 192 200 223 268 273 262 286 307 312 281 241 222 216 207 192 160 79 320 227 206 198 205 203 206 211 204 199 195 191 201 197 195 193
266 1 316 80 273 277 275 281 225 225 235 240 250 254 275 32 301 266 290 322 276 278 293 313 293 230 247 256 229 194 193 216 251 270 279 270 251 224 214 236 243 232 221 218 195 175 165 170 144 213 194 204 210 213 209 211 203 199 199 198 195 197 191
170 169 157 183 215 257 287 254 268 230 220 232 252 262 276 288 274 284 10 322 284 287 291 318 321 317 284 261 235 202 211 185 174 214 240 260 256 233 230 192 204 224 219 197 191 197 181 171 176 185 192 189 201 210 217 212 209 200 191 191 197 194 191
176 164 184 183 226 218 231 237 229 242 235 237 249 265 267 264 267 271 286 290 284 280 286 320 359 334 308 100 136 157 193 217 213 220 234 234 247 252 220 152 108 131 226 176 172 183 179 183 195 196 202 207 203 205 206 206 207 200 195 196 196 196 194
194 167 177 186 211 226 244 229 245 240 246 253 242 261 267 277 272 275 278 279 281 272 112 153 130 179 226 197 191 193 215 225 211 233 227 210 223 266 123 97 87 77 66 28 15 309 270 243 203 192 190 204 211 212 214 212 206 196 196 200 198 195 201
203 203 203 200 212 224 238 266 253 242 234 246 233 250 257 248 269 268 269 274 272 107 136 147 178 198 217 213 199 191 203 183 209 229 217 207 163 127 66 50 51 48 59 75 33 16 0 346 312 264 231 220 226 225 211 209 208 208 205 201 189 182 191
222 161 215 215 229 246 251 240 239 242 241 253 268 273 279 270 276 263 259 280 345 126 145 203 178 216 217 238 217 191 187 176 224 218 208 179 145 118 116 97 104 94 62 63 63 67 314 315 309 284 266 245 227 206 198 205 198 199 210 207 195 191 194
222 169 199 214 229 243 265 40 348 267 266 251 250 246 248 247 234 267 304 339 77 132 190 270 221 202 212 209 154 342 327 197 202 223 194 84 122 138 125 129 119 104 126 151 138 133 152 199 231 256 295 234 220 189 129 71 227 199 198 203 206 198 201
239 173 198 226 238 251 80 156 99 170 268 262 264 276 267 264 250 252 255 253 254 229 304 143 165 146 159 166 150 189 165 219 235 225 80 152 177 102 118 116 106 108 133 148 164 159 153 180 179 195 184 197 176 156 181 176 244 260 247 160 141 168 186
212 207 218 238 249 261 159 156 122 84 258 269 270 265 252 243 254 249 254 265 234 163 148 143 142 176 170 176 188 191 166 181 203 186 140 134 129 107 84 90 111 155 140 133 146 148 158 193 159 181 177 187 174 169 189 185 172 192 203 205 188 172 178
239 223 226 244 321 289 236 213 218 213 239 224 252 284 290 140 247 245 252 245 154 163 147 156 156 158 201 229 197 177 180 168 178 157 98 96 97 119 135 123 123 119 150 179 160 175 196 179 194 160 144 167 165 162 178 174 165 189 204 213 188 175 180
232 246 244 245 246 257 254 252 150 221 246 266 267 261 271 221 236 240 248 227 163 165 158 163 159 174 224 240 182 161 171 160 158 150 147 139 150 129 101 110 112 146 168 165 164 188 182 169 157 126 171 187 170 149 145 134 145 164 174 191 193 197 183
196 230 251 249 256 264 257 50 143 162 153 226 191 256 272 102 175 205 219 189 171 180 172 167 171 203 247 272 97 146 157 155 155 151 155 146 111 110 132 133 135 134 109 109 154 159 181 151 124 148 161 153 144 121 113 108 110 116 130 136 105 130 136
207 241 236 249 229 269 118 144 158 147 161 172 221 264 278 104 143 156 186 180 179 176 174 170 193 225 283 15 84 132 158 162 154 162 149 131 135 110 99 96 102 105 114 119 113 73 93 126 153 187 177 150 136 130 128 131 124 123 117 124 131 137 112
211 215 250 249 256 180 158 162 132 144 156 196 246 264 57 138 139 164 172 181 175 172 172 185 209 226 49 73 82 117 140 142 137 128 112 111 97 90 85 76 76 91 82 67 56 66 121 159 164 163 180 155 129 114 129 124 107 105 105 104 102 103 105
230 212 241 251 262 86 130 137 154 144 170 219 255 31 87 151 152 167 194 177 175 177 185 187 238 89 96 92 128 150 160 152 143 133 125 125 114 100 87 80 87 86 85 79 69 46 15 53 150 179 174 134 125 130 119 105 101 102 104 102 103 99 87
235 222 230 241 249 140 163 131 140 174 236 320 74 126 98 104 174 168 181 185 173 187 184 190 140 125 134 138 151 159 159 157 152 134 123 118 107 98 93 98 87 91 104 108 96 80 336 209 162 168 137 120 117 110 99 101 107 109 106 105 107 107 108
223 215 225 232 256 112 160 168 219 191 229 66 123 217 160 152 177 176 172 179 178 189 189 178 172 157 146 151 158 165 155 158 135 124 120 113 104 103 103 105 100 101 116 117 125 138 130 26 202 135 112 112 111 104 101 102 104 106 106 108 111 108 106
233 251 249 53 87 155 182 197 41 134 132 106 96 14 66 166 166 171 201 165 172 187 183 173 171 165 170 163 176 166 162 157 140 139 127 119 117 117 115 113 107 92 107 122 131 130 126 136 116 112 115 112 105 102 103 104 100 102 105 107 107 103 104
203 24 77 78 92 165 184 142 85 122 148 127 162 166 172 68 93 180 190 161 170 174 179 174 171 177 166 163 175 161 161 155 143 129 120 115 116 118 114 116 126 116 116 122 128 128 130 131 126 120 120 114 106 108 112 110 109 106 103 100 101 105 111
202 210 150 217 204 178 201 165 125 89 132 164 176 145 100 128 139 154 141 159 165 166 169 175 166 161 164 169 162 155 148 145 148 143 122 111 107 109 120 131 136 129 131 135 135 133 125 122 115 114 110 103 105 110 116 128 124 118 111 113 112 115 113
217 164 113 136 99 98 228 190 174 167 148 149 147 101 112 112 125 138 144 154 160 161 172 171 170 167 170 167 162 158 152 153 143 131 123 112 103 112 133 149 143 130 135 135 128 116 109 113 115 114 114 115 114 111 114 116 119 121 123 125 125 124 118
166 103 192 190 191 206 194 195 207 168 148 147 144 143 127 131 139 138 144 166 154 174 168 171 172 169 166 168 166 161 156 155 148 139 129 116 112 124 136 136 126 129 135 128 122 120 119 118 113 109 107 104 104 106 109 115 122 124 122 124 121 117 114
217 237 181 171 214 212 184 191 177 149 143 150 144 142 146 148 145 148 152 154 162 178 165 172 174 169 164 166 169 164 158 156 144 141 135 127 127 130 131 133 130 126 123 121 120 115 111 108 107 107 101 98 102 104 109 115 118 119 121 120 119 115 114
301 32 113 184 245 332 270 178 163 148 152 152 151 159 158 157 151 158 154 155 157 172 170 174 174 163 165 162 170 165 160 151 147 145 141 135 133 143 143 137 133 134 131 126 122 116 112 108 103 100 101 102 97 97 103 110 111 108 110 110 110 111 113
311 22 1 353 285 352 357 155 148 150 153 159 155 155 157 159 160 160 163 160 163 165 172 180 179 164 165 164 172 168 153 151 149 149 147 143 137 145 154 146 141 143 144 140 135 130 129 128 124 120 116 109 110 108 108 116 119 114 115 123 121 118 111
320 330 312 318 262 22 345 149 150 148 156 164 154 155 164 161 162 162 159 158 169 170 170 180 174 171 168 166 170 163 157 151 151 145 143 141 140 153 159 155 150 151 150 145 142 140 141 140 138 138 132 130 125 117 124 139 137 129 129 123 119 120 121